Regional Weather Roundup
Issued by NWS

Home | Current Version | Previous Version | Text Only | Print | Product List | Glossary On
Versions: 1 2 3 4 5 6 7 8 9 10 11 12 13 14 15 16 17 18 19 20 21 22 23 24 25 26 27 28 29 30 31 32 33 34 35 36 37 38 39 40 41 42 43 44 45 46 47 48 49 50
000
ASUS44 KMEG 040810
RWRTN
TENNESSEE HOURLY STATE WEATHER ROUNDUP
NATIONAL WEATHER SERVICE MEMPHIS TN
300 AM CDT TUE AUG 04 2015

TNZ002-004-019-021-049-052-054-088>092-040900-
WEST TENNESSEE

CITY           SKY/WX    TMP DP  RH WIND       PRES   REMARKS
MEMPHIS INTL   MOCLDY    78  71  79 CALM      29.93S
NWS MEMPHIS      N/A     75 N/A N/A MISG        N/A
JACKSON        PTCLDY    72  69  90 CALM      29.94S
DYERSBURG        N/A    N/A N/A N/A MISG        N/A
PARIS          CLEAR     68  66  94 CALM      29.95S
LEXINGTON      CLEAR     70  70 100 CALM      29.94S
$$

TNZ008-025-027-028-033-062-065-066-040900-
NORTH MIDDLE TENNESSEE

CITY           SKY/WX    TMP DP  RH WIND       PRES   REMARKS
NASHVILLE      CLEAR     74  69  85 S3        29.96S
CLARKSVILLE    CLEAR     71  70  96 CALM      29.94S FOG
SMYRNA         CLEAR     71  71 100 CALM      29.96S
CROSSVILLE     CLEAR     68  65  90 W3        30.04S
$$

TNZ061-075-076-078-094-096-097-040900-
SOUTH MIDDLE TENNESSEE

CITY           SKY/WX    TMP DP  RH WIND       PRES   REMARKS
FAYETTEVILLE   CLEAR     70  68  94 CALM      29.97F
TULLAHOMA      CLEAR     70  66  88 CALM      29.99F
WINCHESTER     CLEAR     68  66  94 CALM      29.98F
MCMINNVILLE    CLOUDY    70  70 100 CALM      29.99S VSB 1/4
COLUMBIA       CLEAR     72  72 100 CALM      29.95S
SHELBYVILLE    CLEAR     72  72 100 E3        29.98S
$$

TNZ017-018-042-046-047-040900-
NORTHEAST TENNESSEE

CITY           SKY/WX    TMP DP  RH WIND       PRES   REMARKS
TRI CITIES     MOCLDY    64  61  90 CALM      30.02R
ELIZABETHTON   SUNNY     63  57  82 NE3       30.03S
$$

TNZ012-013-036-069-073-074-040900-
CENTRAL EAST TENNESSEE

CITY           SKY/WX    TMP DP  RH WIND       PRES   REMARKS
KNOXVILLE      CLEAR     70  64  81 CALM      29.98S
OAK RIDGE      CLEAR     72  67  84 CALM      30.00R
GATLINBURG     SUNNY     64  59  82 CALM      29.99R
MORRISTOWN     MOSUNNY   72  63  73 CALM      30.02R
$$

TNZ083-085-099-040900-
SOUTHEAST TENNESSEE

CITY           SKY/WX    TMP DP  RH WIND       PRES   REMARKS
CHATTANOOGA    CLEAR     73  66  78 SW3       29.97S
$$

SKY/WX REPORTED AS FAIR MEANS FEW OR NO CLOUDS BELOW
12 THOUSAND FEET.



USA.gov is the U.S. government's official web portal to all federal, state and local government web resources and services.